Volver al catálogo

STARLINK-30383

ActivoComunicacionesVLEO
NORAD 57773·PAYLOAD·🇺🇸 United States

Lanzado Sep 4, 2023 desde Cape Canaveral Space Force Station

Loading…

Próximos Pases (próximas 24 horas)

TLE

ActualizadoSource: CelesTrak SupGP

Época: Sep 15, 2026, 02:50 UTC

1 57773C 23134C   26258.11854167  .00002273  00000+0  82356-4 0  2587
2 57773  43.0011 207.7823 0001485 266.9191   9.5704 15.27572383    10

Sigue STARLINK-30383 en tiempo real con AllMySat

Download on the App Store